• In Hungary
  • List of Countries
  • For 7 days
  • Water Temperature
  • Satellite Maps
  • Weather Map
  • News
  • Weather Widgets
  • user-avatar
    Login

    Hourly Weather Przysucha

    Today, 26 May, Saturday

    Time Temperature Precipitation Wind Pressure Humidity
    00:00 +15°C° 0.1 mm 2 mps 746 mmHg 89%
    01:00 +15°C° 0 mm 1 mps 746 mmHg 90%
    02:00 +14°C° 0.5 mm 1 mps 746 mmHg 91%
    03:00 +14°C° 0.5 mm 1 mps 746 mmHg 92%
    04:00 +14°C° 0.5 mm 1 mps 746 mmHg 93%
    05:00 +15°C° 0.8 mm 1 mps 747 mmHg 92%
    06:00 +17°C° 0.8 mm 2 mps 747 mmHg 90%
    07:00 +18°C° 0 mm 2 mps 747 mmHg 86%
    08:00 +19°C° 0.6 mm 2 mps 747 mmHg 83%
    09:00 +20°C° 0.6 mm 2 mps 747 mmHg 79%
    10:00 +23°C° 0.6 mm 2 mps 747 mmHg 76%
    11:00 +24°C° 1 mm 2 mps 747 mmHg 71%
    12:00 +25°C° 1 mm 2 mps 747 mmHg 66%
    13:00 +26°C° 1 mm 3 mps 747 mmHg 62%
    14:00 +25°C° 1 mm 3 mps 747 mmHg 64%
    15:00 +25°C° 1 mm 2 mps 747 mmHg 66%
    16:00 +25°C° 1 mm 2 mps 746 mmHg 69%
    17:00 +24°C° 1.1 mm 2 mps 746 mmHg 73%
    18:00 +23°C° 1.1 mm 2 mps 746 mmHg 77%
    19:00 +20°C° 1.1 mm 2 mps 746 mmHg 82%
    20:00 +19°C° 0.9 mm 2 mps 747 mmHg 84%
    21:00 +19°C° 0.9 mm 2 mps 747 mmHg 87%
    22:00 +18°C° 0.9 mm 2 mps 747 mmHg 89%
    23:00 +17°C° 0.4 mm 2 mps 747 mmHg 91%

    Tomorrow, 27 May, Sunday

    Time Temperature Precipitation Wind Pressure Humidity
    00:00 +17°C° 0.4 mm 2 mps 747 mmHg 92%
    01:00 +17°C° 0.4 mm 2 mps 747 mmHg 93%
    02:00 +16°C° 0.1 mm 2 mps 747 mmHg 94%
    03:00 +16°C° 0.1 mm 2 mps 747 mmHg 95%
    04:00 +15°C° 0.1 mm 2 mps 747 mmHg 95%
    05:00 +17°C° 0 mm 2 mps 747 mmHg 92%
    06:00 +18°C° 0 mm 2 mps 747 mmHg 88%
    07:00 +19°C° 0 mm 3 mps 747 mmHg 84%
    08:00 +20°C° 0.1 mm 3 mps 747 mmHg 78%
    09:00 +22°C° 0.1 mm 3 mps 747 mmHg 71%
    10:00 +25°C° 0.1 mm 4 mps 748 mmHg 64%
    11:00 +25°C° 0.1 mm 4 mps 747 mmHg 61%
    12:00 +26°C° 0.1 mm 4 mps 747 mmHg 58%
    13:00 +27°C° 0.1 mm 4 mps 747 mmHg 56%
    14:00 +27°C° 0.1 mm 4 mps 747 mmHg 57%
    15:00 +26°C° 0.1 mm 4 mps 747 mmHg 59%
    16:00 +26°C° 0.1 mm 4 mps 747 mmHg 60%
    17:00 +25°C° 0.1 mm 4 mps 747 mmHg 67%
    18:00 +24°C° 0.1 mm 3 mps 747 mmHg 73%
    19:00 +21°C° 0.1 mm 3 mps 747 mmHg 79%
    20:00 +20°C° 0 mm 3 mps 747 mmHg 83%
    21:00 +19°C° 0 mm 3 mps 747 mmHg 86%
    22:00 +18°C° 0 mm 3 mps 747 mmHg 89%
    23:00 +17°C° 0 mm 3 mps 748 mmHg 91%

    Day after tomorrow, 28 May, Monday

    Time Temperature Precipitation Wind Pressure Humidity
    00:00 +17°C° 0 mm 3 mps 748 mmHg 92%
    01:00 +16°C° 0 mm 3 mps 748 mmHg 94%
    02:00 +16°C° 0 mm 3 mps 748 mmHg 94%
    03:00 +14°C° 0 mm 3 mps 748 mmHg 94%
    04:00 +14°C° 0 mm 3 mps 748 mmHg 95%
    05:00 +16°C° 0 mm 3 mps 748 mmHg 88%
    06:00 +18°C° 0 mm 4 mps 749 mmHg 81%
    07:00 +19°C° 0 mm 4 mps 749 mmHg 75%
    08:00 +20°C° 0 mm 4 mps 749 mmHg 69%
    09:00 +21°C° 0 mm 5 mps 749 mmHg 63%
    10:00 +22°C° 0 mm 5 mps 749 mmHg 58%
    11:00 +23°C° 0 mm 5 mps 749 mmHg 56%
    12:00 +25°C° 0 mm 5 mps 749 mmHg 54%
    13:00 +25°C° 0 mm 5 mps 749 mmHg 52%
    14:00 +25°C° 0 mm 5 mps 749 mmHg 53%
    15:00 +25°C° 0 mm 5 mps 749 mmHg 53%
    16:00 +25°C° 0 mm 5 mps 748 mmHg 54%
    17:00 +22°C° 0 mm 5 mps 748 mmHg 60%
    18:00 +21°C° 0 mm 4 mps 748 mmHg 66%
    19:00 +19°C° 0 mm 4 mps 748 mmHg 72%
    20:00 +18°C° 0 mm 4 mps 748 mmHg 74%
    21:00 +17°C° 0 mm 4 mps 748 mmHg 76%
    22:00 +15°C° 0 mm 4 mps 749 mmHg 78%
    23:00 +15°C° 0 mm 4 mps 748 mmHg 80%

    29 May, Tuesday

    Time Temperature Precipitation Wind Pressure Humidity
    00:00 +14°C° 0 mm 4 mps 748 mmHg 81%
    01:00 +13°C° 0 mm 4 mps 748 mmHg 83%
    02:00 +13°C° 0 mm 4 mps 748 mmHg 83%
    03:00 +13°C° 0 mm 4 mps 748 mmHg 83%
    04:00 +12°C° 0 mm 4 mps 747 mmHg 83%
    05:00 +14°C° 0 mm 5 mps 747 mmHg 79%
    06:00 +15°C° 0 mm 5 mps 747 mmHg 74%
    07:00 +17°C° 0 mm 6 mps 747 mmHg 69%
    08:00 +20°C° 0 mm 6 mps 747 mmHg 66%
    09:00 +22°C° 0 mm 6 mps 747 mmHg 62%
    10:00 +23°C° 0 mm 6 mps 747 mmHg 59%
    11:00 +24°C° 0 mm 6 mps 747 mmHg 56%
    12:00 +26°C° 0 mm 6 mps 746 mmHg 53%
    13:00 +27°C° 0 mm 6 mps 746 mmHg 50%
    14:00 +27°C° 0 mm 6 mps 746 mmHg 51%
    15:00 +26°C° 0 mm 5 mps 745 mmHg 52%
    16:00 +26°C° 0 mm 5 mps 745 mmHg 52%
    17:00 +25°C° 0 mm 4 mps 745 mmHg 59%
    18:00 +22°C° 0 mm 4 mps 745 mmHg 65%
    19:00 +21°C° 0 mm 3 mps 744 mmHg 71%
    20:00 +19°C° 0 mm 3 mps 744 mmHg 75%
    21:00 +18°C° 0 mm 3 mps 744 mmHg 79%
    22:00 +17°C° 0 mm 3 mps 744 mmHg 82%
    23:00 +17°C° 0 mm 3 mps 744 mmHg 85%

    30 May, Wednesday

    Time Temperature Precipitation Wind Pressure Humidity
    00:00 +16°C° 0 mm 3 mps 744 mmHg 87%
    01:00 +14°C° 0 mm 3 mps 744 mmHg 90%
    02:00 +15°C° 0 mm 2 mps 743 mmHg 90%
    03:00 +15°C° 0 mm 2 mps 743 mmHg 90%
    04:00 +14°C° 0 mm 2 mps 743 mmHg 90%
    05:00 +16°C° 0 mm 2 mps 743 mmHg 83%
    06:00 +18°C° 0 mm 2 mps 743 mmHg 77%
    07:00 +20°C° 0 mm 2 mps 743 mmHg 71%
    08:00 +23°C° 0 mm 2 mps 743 mmHg 65%
    09:00 +25°C° 0 mm 2 mps 743 mmHg 59%
    10:00 +27°C° 0 mm 2 mps 743 mmHg 53%
    11:00 +27°C° 0 mm 3 mps 743 mmHg 50%
    12:00 +28°C° 0 mm 3 mps 743 mmHg 47%
    13:00 +29°C° 0 mm 3 mps 743 mmHg 43%
    14:00 +29°C° 0 mm 3 mps 743 mmHg 44%
    15:00 +29°C° 0 mm 3 mps 742 mmHg 45%
    16:00 +28°C° 0 mm 3 mps 742 mmHg 46%
    17:00 +27°C° 0 mm 2 mps 742 mmHg 53%
    18:00 +25°C° 0 mm 2 mps 742 mmHg 59%
    19:00 +24°C° 0 mm 2 mps 742 mmHg 66%
    20:00 +23°C° 0 mm 2 mps 742 mmHg 69%
    21:00 +21°C° 0 mm 2 mps 742 mmHg 72%
    22:00 +19°C° 0 mm 2 mps 742 mmHg 75%
    23:00 +19°C° 0 mm 2 mps 742 mmHg 78%

    31 May, Thursday

    Time Temperature Precipitation Wind Pressure Humidity
    00:00 +18°C° 0 mm 2 mps 742 mmHg 81%
    01:00 +18°C° 0 mm 2 mps 742 mmHg 85%
    02:00 +17°C° 0 mm 2 mps 742 mmHg 86%
    03:00 +17°C° 0 mm 2 mps 742 mmHg 87%
    04:00 +18°C° 0 mm 1 mps 742 mmHg 89%
    05:00 +19°C° 0 mm 2 mps 742 mmHg 82%
    06:00 +20°C° 0 mm 2 mps 743 mmHg 76%
    07:00 +23°C° 0 mm 2 mps 743 mmHg 69%
    08:00 +24°C° 0 mm 2 mps 743 mmHg 63%
    09:00 +26°C° 0 mm 2 mps 743 mmHg 57%
    10:00 +27°C° 0 mm 3 mps 743 mmHg 51%
    11:00 +27°C° 0 mm 3 mps 743 mmHg 50%
    12:00 +28°C° 0 mm 3 mps 743 mmHg 49%
    13:00 +28°C° 0 mm 3 mps 743 mmHg 49%
    14:00 +28°C° 0 mm 3 mps 743 mmHg 50%
    15:00 +27°C° 0 mm 3 mps 743 mmHg 52%
    16:00 +27°C° 0 mm 3 mps 743 mmHg 53%
    17:00 +26°C° 0 mm 3 mps 743 mmHg 59%
    18:00 +25°C° 0 mm 3 mps 743 mmHg 64%
    19:00 +23°C° 0 mm 2 mps 743 mmHg 70%
    20:00 +21°C° 0 mm 2 mps 743 mmHg 71%
    21:00 +20°C° 0 mm 2 mps 743 mmHg 73%
    22:00 +19°C° 0 mm 2 mps 744 mmHg 74%
    23:00 +19°C° 0 mm 2 mps 744 mmHg 75%
    Show more